SCP
0 0 0 0 0 0 0 0 0 0 0 0 0 0 0 0 0 0 0 0 0 0 0 0 0 0 0 0 0 0 0 0 0 0 0 0 0 0 0 0 0 0 0 0 0 0 0 0 0
0 0 0 0 0 0 0 0 0 0 0 0 0 0 0 0 0 0 0 0 0 0 0 0 0 0 0 0 0 0 0 0 0 0 0 0 0 0 0 0 0 0 0 0 0 0 0 0 0
0 0 0 0 0 0 0 0 0 0 0 0 0 0 0 0 0 0 0 0 0 0 0 0 0 0 0 0 0 0 0 0 0 0 0 0 0 0 0 0 0 0 0 0 0 0 0 0 0
0 0 0 0 0 0 0 0 0 0 0 0 0 0 0 0 0 0 0 0 0 0 0 0 0 0 0 0 0 0 0 0 0 0 0 0 0 0 0 0 0 0 0 0 0 0 0 0 0
0 0 0 0 0 0 0 0 0 0 0 0 0 0 0 0 0 0 0 0 0 0 0 0 0 0 0 0 0 0 0 0 0 0 0 0 0 0 0 0 0 0 0 0 0 0 0 0 0
0 0 0 0 0 0 0 0 0 0 0 0 0 0 0 0 0 0 0 0 0 0 0 0 0 0 0 0 0 0 0 0 0 0 0 0 0 0 0 0 0 0 0 0 0 0 0 0 0
0 0 0 0 0 0 0 0 0 0 0 0 0 0 0 0 0 0 0 0 0 0 0 0 0 0 0 0 0 0 0 0 0 0 0 0 0 0 0 0 0 0 0 0 0 0 0 0 0
0 0 0 0 0 0 0 0 0 0 0 0 0 0 0 0 0 0 0 0 0 0 0 0 0 0 0 0 0 0 0 0 0 0 0 0 0 0 0 0 0 0 0 0 0 0 0 0 0
0 0 0 0 0 0 0 0 0 0 0 0 0 0 0 0 0 0 0 0 0 0 0 0 0 0 0 0 0 0 0 0 0 0 0 0 0 0 0 0 0 0 0 0 0 0 0 0 0
0 0 0 0 0 0 0 0 0 0 0 0 0 0 0 0 0 0 0 0 0 0 0 0 0 0 0 0 0 0 0 0 0 0 0 0 0 0 0 0 0 0 0 0 0 0 0 0 0
0 0 0 0 0 0 0 0 0 0 0 0 0 0 0 0 0 0 0 0 0 0 0 0 0 0 0 0 0 0 0 0 0 0 0 0 0 0 0 0 0 0 0 0 0 0 0 0 0
0 0 0 0 0 0 0 0 0 0 0 0 0 0 0 0 0 0 0 0 0 0 0 0 0 0 0 0 0 0 0 0 0 0 0 0 0 0 0 0 0 0 0 0 0 0 0 0 0
0 0 0 0 0 0 0 0 0 0 0 0 0 0 0 0 0 0 0 0 0 0 0 0 0 0 0 0 0 0 0 0 0 0 0 0 0 0 0 0 0 0 0 0 0 0 0 0 0
0 0 0 0 0 0 0 0 0 0 0 0 0 0 0 0 0 0 0 0 0 0 0 0 0 0 0 0 0 0 0 0 0 0 0 0 0 0 0 0 0 0 0 0 0 0 0 0 0
0 0 0 0 0 0 0 0 0 0 0 0 0 0 0 0 0 0 0 0 0 0 0 0 0 0 0 0 0 0 0 0 0 0 0 0 0 0 0 0 0 0 0 0 0 0 0 0 0
0 0 0 0 0 0 0 0 0 0 0 0 0 0 0 0 0 0 0 0 0 0 0 0 0 0 0 0 0 0 0 0 0 0 0 0 0 0 0 0 0 0 0 0 0 0 0 0 0
0 0 0 0 0 0 0 0 0 0 0 0 0 0 0 0 0 0 0 0 0 0 0 0 0 0 0 0 0 0 0 0 0 0 0 0 0 0 0 0 0 0 0 0 0 0 0 0 0
0 0 0 0 0 0 0 0 0 0 0 0 0 0 0 0 0 0 0 0 0 0 0 0 0 0 0 0 0 0 0 0 0 0 0 0 0 0 0 0 0 0 0 0 0 0 0 0 0
0 0 0 0 0 0 0 0 0 0 0 0 0 0 0 0 0 0 0 0 0 0 0 0 0 0 0 0 0 0 0 0 0 0 0 0 0 0 0 0 0 0 0 0 0 0 0 0 0
0 0 0 0 0 0 0 0 0 0 0 0 0 0 0 0 0 0 0 0 0 0 0 0 0 0 0 0 0 0 0 0 0 0 0 0 0 0 0 0 0 0 0 0 0 0 0 0 0
0 0 0 0 0 0 0 0 0 0 0 0 0 0 0 0 0 0 0 0 0 0 0 0 0 0 0 0 0 0 0 0 0 0 0 0 0 0 0 0 0 0 0 0 0 0 0 0 0
0 0 0 0 0 0 0 0 0 0 0 0 0 0 0 0 0 0 0 0 0 0 0 0 0 0 0 0 0 0 0 0 0 0 0 0 0 0 0 0 0 0 0 0 0 0 0 0 0
0 0 0 0 0 0 0 0 0 0 0 0 0 0 0 0 0 0 0 0 0 0 0 0 0 0 0 0 0 0 0 0 0 0 0 0 0 0 0 0 0 0 0 0 0 0 0 0 0
0 0 0 0 0 0 0 0 0 0 0 0 0 0 0 0 0 0 0 0 0 0 0 0 0 0 0 0 0 0 0 0 0 0 0 0 0 0 0 0 0 0 0 0 0 0 0 0 0
0 0 0 0 0 0 0 0 0 0 0 0 0 0 0 0 1 1 1 1 0 1 1 1 1 0 0 0 0 0 0 0 0 0 0 0 0 0 0 0 0 0 0 0 0 0 0 0 0
0 0 0 0 0 0 0 0 0 0 0 0 0 0 0 0 0 1 1 1 1 1 1 1 1 1 0 0 0 0 0 0 0 0 0 0 0 0 0 0 0 0 0 0 0 0 0 0 0
0 0 0 0 0 0 0 0 0 0 0 0 0 0 0 0 0 0 1 1 1 1 1 1 1 1 0 0 0 0 0 0 0 0 0 0 0 0 0 0 0 0 0 0 0 0 0 0 0
0 0 0 0 0 0 0 0 0 0 0 0 0 0 0 0 0 0 0 1 1 1 1 1 1 0 0 0 0 0 0 0 0 0 0 0 0 0 0 0 0 0 0 0 0 0 0 0 0
0 0 0 0 0 0 0 0 0 0 0 0 0 0 0 0 0 0 0 1 1 1 1 0 0 0 0 0 0 0 0 0 0 0 0 0 0 0 0 0 0 0 0 0 0 0 0 0 0
0 0 0 0 0 0 0 0 0 0 0 0 0 0 0 0 0 0 0 1 1 1 0 0 0 0 0 0 0 0 0 0 0 0 0 0 0 0 0 0 0 0 0 0 0 0 0 0 0
Wind_Speed
8 5 2 1 2 3 3 2 5 7 6 7 9 10 8 6 5 5 3 9 9 7 6 8 10 10 10 10 10 10 9 9 9 9 8 8 8 7 7 9 9 10 10 10 10 9 9 8 8
5 4 1 1 3 3 3 3 8 8 9 10 10 11 9 7 6 7 5 8 9 8 5 7 10 10 10 9 10 9 9 9 9 9 8 8 8 8 8 9 9 9 9 9 9 9 8 7 7
4 3 0 2 2 3 2 4 8 10 10 8 7 6 5 5 6 5 7 10 8 7 5 7 11 10 10 9 9 9 9 9 9 8 8 8 8 8 8 8 8 8 8 9 8 8 7 7 7
2 1 1 2 3 2 4 5 8 10 9 8 8 6 4 4 4 8 11 12 9 6 5 7 10 10 10 9 9 8 8 8 8 8 7 7 7 7 7 7 7 7 7 8 7 7 7 6 6
1 2 3 2 2 3 5 7 9 10 6 8 9 7 4 4 9 12 11 11 10 7 5 6 10 10 10 10 9 8 8 7 7 7 7 7 6 7 7 6 6 6 6 6 6 6 6 6 6
1 2 3 2 3 4 5 8 11 12 11 9 9 7 3 4 10 9 9 9 8 8 5 4 9 10 9 9 9 9 8 7 7 7 6 6 6 6 6 5 5 5 5 5 5 5 5 4 4
2 2 1 3 4 4 5 6 8 9 9 6 7 6 3 4 7 9 8 8 7 6 5 3 3 5 7 8 8 8 7 6 6 6 6 6 5 5 5 4 4 4 4 4 4 4 4 4 4
2 2 1 1 4 4 4 6 7 8 7 7 6 7 5 5 8 9 8 7 6 5 4 3 2 2 2 3 6 7 6 6 5 5 5 5 5 4 3 3 3 3 3 3 4 3 4 3 3
2 3 1 2 4 3 6 10 7 7 9 6 5 6 9 10 11 9 7 6 5 4 3 3 2 2 2 2 4 4 5 4 3 3 3 3 1 1 1 2 3 3 3 3 3 2 3 2 3
3 2 3 4 5 6 8 9 6 6 9 7 8 9 11 10 10 10 8 7 5 4 3 2 2 2 2 2 2 1 2 1 1 1 0 1 1 1 1 2 3 3 3 2 2 2 2 1 0
3 3 2 3 5 7 8 6 5 9 6 8 12 12 10 10 8 8 7 6 5 4 3 2 2 2 2 1 2 1 1 0 1 1 1 1 0 0 1 0 1 1 2 1 1 1 0 0 0
2 1 3 3 5 8 8 7 6 7 7 10 12 12 10 10 8 8 7 6 5 5 4 3 2 2 2 1 1 1 1 1 1 1 2 1 1 1 1 1 1 1 0 0 0 0 1 0 1
2 1 2 4 7 8 9 8 8 8 10 11 12 11 10 10 8 7 7 6 5 4 3 2 2 2 2 1 1 2 1 1 1 1 1 2 1 1 1 1 1 1 1 1 1 1 1 1 1
1 0 1 2 6 7 10 7 7 8 10 11 11 10 10 10 9 7 7 6 5 4 3 2 2 2 2 2 1 1 1 1 1 1 1 2 1 1 1 1 1 1 1 1 1 1 1 1 1
1 2 2 2 5 6 9 6 6 10 10 10 10 9 9 9 8 8 7 6 5 4 3 3 3 2 2 2 1 1 1 1 1 1 1 1 1 1 1 1 0 1 1 1 0 0 0 0 1
3 3 1 3 5 5 8 5 6 9 10 8 8 9 8 7 8 7 7 6 5 5 3 2 3 2 2 1 1 1 1 1 1 1 1 1 1 1 1 0 1 1 0 1 1 0 1 0 0
2 1 1 2 4 5 5 5 6 8 10 9 8 8 8 8 7 6 7 7 6 5 4 2 2 2 1 1 1 1 1 1 0 0 0 0 1 1 1 0 1 0 0 0 0 0 1 1 0
3 2 2 3 4 5 4 4 7 8 10 9 8 7 7 8 8 7 7 7 6 5 4 3 2 2 1 1 1 1 1 0 0 0 0 0 0 0 1 0 0 0 1 1 1 0 0 1 1
4 3 2 2 3 5 5 5 8 9 8 9 8 8 8 8 7 6 7 7 6 4 4 3 2 1 1 1 1 1 0 0 0 0 1 0 0 0 1 0 0 0 0 0 1 1 0 0 1
2 2 1 2 1 3 5 4 7 9 10 11 11 10 9 7 6 6 6 6 5 5 4 3 3 2 1 1 1 1 1 0 1 1 1 0 0 0 1 1 0 0 0 1 1 1 0 1 0
2 4 4 3 2 4 5 1 2 4 5 6 8 8 9 10 10 8 7 6 5 5 4 4 3 2 1 1 1 1 2 2 2 2 1 1 0 0 0 0 0 0 0 0 1 1 2 1 1
4 6 6 5 3 1 3 1 5 5 5 7 8 8 8 8 9 8 8 7 7 6 5 4 3 2 1 2 2 2 2 1 1 1 1 1 1 1 1 1 1 0 0 0 1 1 1 1 1
6 5 4 3 3 1 1 2 6 3 5 8 9 10 9 9 10 9 9 8 7 6 5 4 3 2 2 2 3 2 1 0 0 1 1 1 1 1 1 1 0 1 1 1 1 1 1 1 2
4 4 5 5 5 1 3 3 5 5 8 8 8 9 9 8 8 8 7 7 6 5 5 4 4 3 2 2 2 2 2 1 2 2 1 1 1 1 1 1 1 1 1 1 2 1 1 1 1
5 6 4 5 4 4 2 2 7 7 7 9 10 9 9 8 8 8 8 7 7 6 6 5 5 3 2 3 2 2 2 1 1 0 0 1 1 1 2 1 1 1 2 1 1 1 1 1 1
3 8 7 4 3 4 3 2 6 3 4 5 8 9 8 8 8 8 9 8 8 7 6 5 5 4 3 3 2 1 1 1 0 0 0 0 1 1 2 1 1 1 1 1 1 1 1 1 1
3 2 7 7 2 0 3 3 4 3 3 5 6 7 8 9 8 8 8 8 8 7 6 6 6 5 4 3 3 2 1 1 1 0 0 0 1 1 1 1 2 2 1 1 1 1 2 1 1
5 5 5 5 4 1 2 3 3 2 2 4 5 6 7 7 7 7 6 7 7 7 6 6 6 6 5 4 3 3 1 1 1 0 0 1 1 1 1 2 1 1 1 1 1 1 2 1 2
1 2 4 4 5 6 3 6 6 7 6 7 7 7 7 7 7 6 6 6 6 6 6 5 5 5 4 4 3 3 2 2 1 1 1 1 1 1 1 1 1 1 1 1 1 2 2 1 2
4 4 6 4 2 4 4 6 4 6 6 7 7 6 6 6 6 6 6 6 6 6 5 6 5 5 5 4 3 3 2 1 1 1 1 1 1 1 1 1 1 1 1 1 1 2 2 1 2
Wind_Direction
164 161 168 212 37 49 66 88 95 81 63 63 74 81 79 64 87 119 144 141 138 144 147 140 136 132 128 124 120 117 114 114 114 113 112 110 110 111 118 131 136 140 144 145 145 147 150 151 153
163 167 178 30 65 71 60 83 87 97 115 104 81 81 76 67 82 108 122 144 142 142 142 142 140 137 133 130 124 121 118 116 115 113 111 109 108 108 113 123 133 139 143 146 149 152 154 156 159
178 187 94 46 70 118 117 100 102 103 104 94 86 66 74 96 104 129 151 147 139 136 138 145 141 139 138 135 128 126 124 121 119 116 114 110 110 113 116 120 130 137 142 147 150 153 157 162 166
168 107 53 68 101 135 126 128 114 104 85 77 93 71 62 86 117 139 143 141 135 135 139 145 141 139 139 138 135 134 130 128 127 124 120 116 114 115 119 122 127 133 141 147 150 155 162 170 176
110 78 54 63 102 97 104 119 109 100 90 90 93 95 72 68 109 129 137 137 140 142 147 150 140 137 138 139 138 136 134 131 129 129 126 122 122 120 120 124 126 130 141 150 155 158 167 179 187
46 64 71 91 95 88 91 101 102 102 111 107 99 100 87 111 118 130 133 133 139 142 142 144 144 141 141 139 134 131 129 127 127 131 132 130 130 128 125 126 128 132 144 156 160 166 177 190 203
103 78 134 141 116 104 104 98 100 109 110 107 109 95 105 115 123 125 124 125 125 129 132 142 143 148 152 151 141 134 129 128 130 129 127 129 132 135 136 137 138 139 149 167 175 182 189 201 214
168 104 43 107 111 105 109 91 95 100 98 112 109 118 145 152 128 121 117 112 115 120 128 132 134 139 157 160 154 145 137 129 127 129 131 139 142 142 143 148 158 153 157 175 186 189 200 207 209
133 76 134 161 136 137 111 99 81 77 95 87 84 115 137 133 121 115 112 104 112 117 118 126 139 147 153 163 158 156 147 138 135 129 135 138 132 155 163 173 179 176 177 189 196 192 203 202 209
125 134 199 176 152 134 117 116 117 94 87 89 90 102 119 122 122 123 124 122 128 139 140 140 139 135 134 149 140 150 152 143 130 103 147 110 141 199 190 215 207 200 201 209 213 219 219 220 281
147 181 142 105 127 123 112 108 104 114 110 134 134 133 131 126 122 124 129 130 136 138 139 139 142 149 146 150 143 139 132 131 135 158 188 178 165 217 207 230 261 254 241 268 273 288 309 117 31
137 186 158 119 115 118 120 112 102 112 138 141 138 140 136 133 136 135 135 134 129 118 118 127 133 140 160 151 153 159 163 179 186 196 187 162 156 168 178 205 241 264 294 286 292 330 280 235 223
90 91 109 132 115 115 112 113 110 118 129 130 130 131 134 135 133 130 129 125 122 121 128 142 130 128 133 130 158 135 160 184 188 193 185 160 156 172 180 213 233 232 214 201 210 245 271 253 234
234 329 104 127 116 120 117 117 106 132 133 132 135 135 139 137 135 127 123 122 125 129 142 148 124 119 119 122 121 128 142 162 142 147 160 154 153 165 176 187 209 223 203 202 194 202 216 223 198
88 45 16 140 128 133 112 95 131 151 139 134 137 138 138 140 139 141 145 141 142 141 144 146 138 110 107 120 125 127 131 119 116 156 166 158 157 166 168 152 234 253 220 185 155 222 204 179 177
28 51 11 252 148 144 113 140 159 151 139 139 141 142 139 143 148 152 149 145 144 138 134 138 130 111 99 106 126 134 128 121 143 190 166 183 174 155 149 143 255 258 187 136 154 138 95 87 187
16 66 242 256 175 141 117 162 171 154 144 150 155 151 149 149 156 158 157 154 151 148 143 137 113 119 125 123 122 107 110 122 154 75 54 224 192 157 144 185 252 239 84 106 225 120 155 157 231
223 222 224 224 187 134 118 155 158 164 156 161 163 161 159 160 168 162 160 157 152 149 144 137 115 116 117 77 55 48 55 66 80 82 261 247 237 159 137 192 311 38 73 27 27 85 122 168 182
194 193 234 247 162 128 141 154 169 173 167 168 169 168 168 171 170 158 154 150 142 137 130 126 119 119 100 74 74 79 331 268 291 262 248 229 265 133 133 117 335 61 129 240 227 166 79 272 107
180 164 251 323 55 106 137 153 173 176 180 178 175 173 170 167 164 165 157 152 149 148 145 132 133 134 132 143 170 173 180 205 192 284 322 279 263 226 154 147 219 218 124 343 317 167 151 256 151
229 185 191 183 33 60 98 9 221 194 181 179 183 176 173 171 174 176 171 162 152 153 159 152 148 134 132 125 86 60 50 32 25 359 344 321 342 42 69 91 55 33 116 240 266 215 187 226 266
231 207 179 159 119 240 124 211 271 203 197 193 189 185 187 180 175 176 173 165 164 164 156 147 143 132 126 118 102 101 102 103 256 261 292 325 336 8 19 41 53 33 349 245 258 223 205 183 248
212 199 164 154 137 85 52 131 273 193 209 212 200 192 186 182 181 176 172 171 169 163 158 157 143 135 127 116 120 109 95 137 328 16 26 4 344 346 358 21 1 321 309 286 293 287 223 188 202
145 75 42 44 68 8 238 163 257 220 208 202 198 190 181 176 174 168 163 156 158 162 160 157 147 146 142 125 116 117 111 73 54 34 30 1 340 338 340 334 321 304 304 293 282 270 241 234 224
101 90 35 3 15 266 259 162 242 234 201 185 177 178 175 169 167 163 157 158 163 167 166 164 156 154 148 134 128 131 134 113 104 83 42 353 344 332 317 319 308 308 297 294 307 316 286 257 241
162 135 152 184 217 274 333 246 261 249 176 152 156 164 164 167 171 172 169 167 168 169 168 165 161 160 155 146 149 133 127 126 118 112 109 311 272 284 314 331 328 329 330 335 343 339 303 301 267
143 171 165 138 136 38 298 299 320 56 98 129 145 153 163 171 176 178 174 168 167 166 173 172 165 164 163 161 155 137 131 121 103 85 85 315 298 313 342 331 338 340 351 3 8 346 316 310 286
145 154 97 113 143 211 286 264 233 212 167 149 148 158 168 168 173 175 172 169 168 170 171 172 166 170 172 167 166 151 162 172 172 126 358 314 309 329 343 334 334 338 344 350 2 337 320 324 307
60 98 107 120 148 151 203 262 223 193 173 162 166 163 153 160 172 175 175 175 168 169 168 168 170 168 165 168 167 160 166 173 162 188 238 266 293 309 324 320 324 319 324 328 339 323 335 333 319
162 164 138 143 218 162 163 258 241 172 164 155 153 156 149 153 162 168 167 164 165 169 174 177 177 175 178 174 165 167 170 165 187 239 248 249 282 285 281 295 305 295 311 309 303 308 326 317 310